GW5547 Weather Reports


Display with metric or nautical units.
time (UTC)temp
F
wind
direction
speed
MPH
gust
MPH
rain 1hr
in
rain 24hr
in
rain mn
in
humidity
%
barometer
mb
20260506073032 58 0 0.0 0.0 0.00 0.00 0.00 88 1017.0
20260506071530 58 0 0.0 0.0 0.00 0.00 0.00 87 1016.9
20260506061536 58 0 0.0 1.0 0.00 0.00 0.00 86 1016.6
20260506044530 59 0 0.0 0.0 0.00 0.00 0.00 80 1016.1
20260506043030 59 0 0.0 0.0 0.00 0.00 0.00 80 1016.1
20260506041534 59 0 0.0 0.0 0.00 0.00 0.00 81 1015.9
20260506040030 59 0 0.0 0.0 0.00 0.00 0.00 81 1015.8
20260506034530 60 0 0.0 0.0 0.00 0.00 0.00 81 1015.7
20260506033032 60 0 0.0 0.0 0.00 0.00 0.00 80 1015.5
20260506031537 60 0 0.0 1.0 0.00 0.00 0.00 79 1015.4
20260506030030 60 0 0.0 2.0 0.00 0.00 0.00 78 1015.2
20260506024537 60 0 0.0 0.0 0.00 0.00 0.00 77 1015.2
20260506023032 60 0 0.0 2.0 0.00 0.00 0.00 76 1015.1
20260506021529 60 0 0.0 3.0 0.00 0.00 0.00 77 1015.1
20260506020028 60 325 1.0 3.0 0.00 0.00 0.00 77 1015.1
20260506014528 61 325 2.0 4.0 0.00 0.00 0.00 77 1015.1
20260506013032 61 0 0.0 3.0 0.00 0.00 0.00 76 1015.0
20260506011557 61 325 1.0 4.0 0.00 0.00 0.00 76 1015.0
20260506010030 61 325 1.0 3.0 0.00 0.00 0.00 76 1015.0
20260506004528 61 325 0.0 4.0 0.00 0.00 0.00 77 1015.0
20260506003030 61 325 2.0 4.0 0.00 0.00 0.00 77 1015.1
20260506001529 61 325 1.0 4.0 0.00 0.00 0.00 77 1015.2
20260506000048 61 325 1.0 5.0 0.00 0.00 0.00 77 1015.3
20260505234541 61 0 1.0 5.0 0.00 0.00 0.00 77 1015.3
20260505233030 61 325 0.0 4.0 0.00 0.00 0.00 77 1015.5
20260505231529 62 324 1.0 5.0 0.00 0.00 0.00 76 1015.4
20260505230050 62 0 0.0 3.0 0.00 0.00 0.00 75 1015.5
20260505224538 61 0 1.0 4.0 0.00 0.00 0.00 75 1015.6
20260505223028 61 327 1.0 4.0 0.00 0.00 0.00 75 1015.7
20260505221530 62 327 1.0 4.0 0.00 0.00 0.00 76 1015.8
20260505220027 62 0 0.0 3.0 0.00 0.00 0.00 75 1015.7
20260505214531 62 327 0.0 3.0 0.00 0.00 0.00 74 1015.8
20260505213030 62 0 0.0 3.0 0.00 0.00 0.00 76 1015.9
20260505211535 61 327 1.0 4.0 0.00 0.00 0.00 76 1016.0
20260505210031 61 0 0.0 3.0 0.00 0.00 0.00 76 1016.1
20260505204542 60 0 0.0 3.0 0.00 0.00 0.00 77 1016.3
20260505203031 59 0 1.0 3.0 0.00 0.00 0.00 79 1016.3
20260505201531 59 327 1.0 5.0 0.00 0.00 0.00 80 1016.3
20260505200030 59 0 1.0 6.0 0.00 0.00 0.00 80 1016.4
20260505194536 59 259 0.0 3.0 0.00 0.00 0.00 80 1016.4
20260505193027 58 0 0.0 4.0 0.00 0.00 0.00 81 1016.4
20260505191531 58 214 0.0 3.0 0.00 0.00 0.00 83 1016.4
20260505190036 57 0 0.0 1.0 0.00 0.00 0.00 85 1016.5
20260505184533 56 214 0.0 3.0 0.00 0.00 0.00 85 1016.5
20260505183030 56 0 0.0 2.0 0.00 0.00 0.00 88 1016.5
20260505181535 55 0 0.0 1.0 0.00 0.00 0.00 89 1016.5
20260505180040 55 0 0.0 2.0 0.00 0.00 0.00 90 1016.4
20260505174533 54 0 0.0 1.0 0.00 0.00 0.00 92 1016.4
20260505173030 53 0 0.0 1.0 0.00 0.00 0.00 94 1016.2
20260505171528 53 0 0.0 0.0 0.00 0.00 0.00 95 1016.2
20260505170030 52 0 0.0 1.0 0.00 0.00 0.00 95 1016.2
20260505164528 52 0 0.0 1.0 0.00 0.00 0.00 95 1016.1
20260505163028 52 0 0.0 1.0 0.00 0.00 0.00 96 1016.0
20260505161528 52 0 0.0 0.0 0.00 0.00 0.00 96 1015.8
20260505153028 52 0 0.0 1.0 0.00 0.00 0.00 96 1015.7
20260505151527 52 0 0.0 1.0 0.00 0.00 0.00 95 1015.8
20260505124541 53 0 0.0 1.0 0.00 0.00 0.00 90 1014.7
20260505123027 53 0 0.0 2.0 0.00 0.00 0.00 90 1014.6
20260505121559 53 0 0.0 0.0 0.00 0.00 0.00 89 1014.6
20260505120029 53 0 0.0 0.0 0.00 0.00 0.00 89 1014.5
20260505114533 53 0 0.0 0.0 0.00 0.00 0.00 89 1014.5
20260505113030 53 0 0.0 0.0 0.00 0.00 0.00 88 1014.5
20260505111536 53 0 0.0 3.0 0.00 0.00 0.00 88 1014.4
20260505101528 54 0 0.0 1.0 0.00 0.00 0.00 87 1014.2
20260505100038 54 0 0.0 1.0 0.00 0.00 0.00 87 1014.2
20260505094528 54 0 0.0 2.0 0.00 0.00 0.00 86 1014.2
20260505093030 54 0 0.0 2.0 0.00 0.00 0.00 86 1014.0
20260505091535 54 0 0.0 2.0 0.00 0.00 0.00 86 1013.9
20260505090030 54 0 0.0 3.0 0.00 0.00 0.00 86 1013.9
20260505084530 55 214 0.0 3.0 0.00 0.00 0.00 86 1013.6
20260505083041 55 214 0.0 2.0 0.00 0.00 0.00 86 1013.6
20260505081532 55 0 0.0 3.0 0.00 0.00 0.00 85 1013.5